Location: Alafon
(8.4500°N, 4.2333°E)
Time: 16:12:18
(UTC+00:00)

SR - Pass Details

Date: 10 August 2021
Orbit: 581 x 874 km, 66.7° (Epoch: 18 September)

Event Time Altitude Azimuth Distance (km) Brightness Sun altitude
Rises 01:12:39 0° 169° (S) 3,432 - -58.2°
Reaches altitude 10° 01:15:50 10° 152° (SSE) 2,512 - -57.7°
Maximum altitude 01:19:53 19° 108° (ESE) 1,939 - -57.0°
Drops below altitude 10° 01:23:54 10° 64° (ENE) 2,503 - -56.3°
Exits shadow 01:26:53 - 48° (NE) 3,364 ? -55.8°
Sets 01:27:03 0° 47° (NE) 3,416 ? -55.8°
